Wind_Speed
32 33 34 34 35 35 38 41 41 40 40 39 36 34 31 30 28 27 29 33 33 32 31 29 25 19 17 18 18 18 19 19 20 23 25 26 27 27 27 27 25 23 21 20 21 22 21 20 19 16 15 15 17 18 19 24 27 23 18 20 23 22 16 24 28 30 32 29 27 26 24 22 26 35
32 34 35 37 37 36 36 39 41 40 40 40 38 35 33 31 31 29 30 34 34 33 32 29 25 22 21 20 21 21 22 23 25 26 27 29 30 30 29 29 26 23 21 19 19 20 20 20 19 18 17 16 16 16 17 19 25 25 19 18 18 18 20 22 25 26 27 29 29 26 24 23 24 31
32 34 35 37 38 38 37 38 39 40 41 41 40 39 36 34 34 33 31 34 37 35 31 28 26 25 25 23 24 25 26 27 28 29 30 32 31 30 28 27 25 22 19 18 17 18 18 18 18 19 19 17 15 16 15 16 21 25 23 18 13 16 22 22 20 19 20 25 30 28 24 25 26 28
33 34 35 36 37 38 39 39 39 39 39 40 41 40 39 37 36 36 34 36 39 38 32 31 31 30 30 29 27 28 29 29 30 30 31 31 28 26 25 23 21 19 18 16 16 16 16 16 17 19 20 18 16 15 15 14 17 21 22 19 12 14 22 25 23 17 14 17 26 29 24 24 28 29
34 35 35 35 35 36 38 40 40 39 38 39 40 39 40 40 39 38 36 36 39 39 36 34 34 33 32 31 28 26 27 27 27 27 26 26 25 25 23 21 19 17 16 15 14 14 15 15 17 19 20 19 17 16 15 14 14 15 17 17 12 9 20 27 25 21 18 14 18 25 24 22 26 30
34 35 35 35 35 34 37 39 39 40 39 38 38 39 39 39 39 38 37 36 38 41 38 35 34 33 31 29 25 22 21 22 22 22 22 23 24 24 22 21 19 16 14 14 13 13 14 14 15 17 19 20 18 16 16 14 13 13 13 13 11 4 14 24 26 24 22 18 15 18 21 20 22 26
34 35 35 35 34 34 36 37 38 38 39 38 38 38 37 38 38 38 37 37 38 39 38 35 33 31 28 25 23 20 19 18 19 20 21 21 22 22 21 21 19 15 13 13 12 13 13 13 14 15 17 19 19 18 16 16 14 13 11 9 8 4 5 16 22 24 24 22 20 19 19 18 19 21
35 35 35 34 33 33 35 37 37 37 37 38 39 39 38 38 38 37 36 36 36 37 37 35 31 28 25 23 22 21 19 18 17 18 19 20 20 20 19 19 17 14 12 12 12 12 12 12 12 13 14 17 19 19 18 17 16 14 12 8 5 4 1 7 11 15 18 19 20 21 20 19 18 18
35 35 35 34 33 33 35 36 38 38 38 38 38 39 39 39 38 37 36 36 35 35 36 34 29 26 24 24 22 20 19 19 18 18 18 18 17 17 16 15 14 13 13 12 11 10 10 10 11 11 12 14 16 19 19 18 18 16 13 8 3 3 2 1 1 2 6 10 14 19 22 20 19 18
36 35 35 34 34 34 35 35 36 38 39 39 38 39 39 38 37 36 35 35 34 34 34 32 29 27 26 24 22 20 19 19 19 19 18 16 15 14 14 13 12 13 13 11 10 10 9 9 9 9 11 12 14 17 19 19 19 17 14 9 5 3 1 1 2 3 3 0 5 12 18 18 16 17
36 36 35 35 34 34 34 34 33 35 37 38 38 37 37 37 38 37 36 35 34 34 33 32 31 29 27 25 23 20 19 19 19 18 18 17 15 13 13 13 13 12 11 10 10 11 10 9 9 9 9 10 12 14 17 19 19 18 16 12 9 7 5 3 2 1 2 2 1 5 10 12 12 13
37 37 36 35 35 34 33 32 31 32 34 35 35 33 32 33 35 37 38 37 36 35 34 33 32 30 29 27 24 22 21 21 17 14 16 18 18 16 15 14 13 11 11 11 10 10 10 9 9 8 8 8 10 12 14 18 19 18 18 16 13 10 9 7 6 4 1 2 1 3 6 8 9 10
39 38 37 36 35 34 33 32 30 29 30 31 30 28 26 27 29 31 34 37 38 37 36 35 33 32 31 28 25 23 21 19 15 12 13 16 18 19 18 16 12 11 12 12 9 7 9 9 8 8 8 7 8 10 12 15 18 19 19 18 16 14 12 10 9 7 4 2 2 1 4 8 10 10
40 38 37 36 35 34 33 32 30 27 26 26 26 25 24 24 25 26 28 31 34 37 37 35 33 33 31 26 23 21 18 14 12 10 11 14 15 17 18 14 9 9 12 12 8 4 7 10 8 7 7 7 7 8 9 11 15 18 20 20 19 18 15 14 12 10 8 6 4 1 1 4 8 11
40 39 38 36 35 34 33 32 30 28 26 25 24 24 23 22 22 22 23 25 27 29 31 30 30 30 28 23 20 18 15 12 11 9 9 10 11 13 15 11 5 6 9 11 7 3 4 9 9 8 8 8 8 7 8 9 10 14 19 22 22 21 19 17 15 12 11 10 7 4 2 1 4 8
39 38 38 36 35 34 33 32 30 29 28 26 24 23 22 22 21 21 20 20 20 21 22 23 24 24 23 20 18 15 11 9 9 8 7 7 9 12 16 13 6 4 7 10 8 5 4 7 8 8 9 8 8 7 7 7 7 9 15 21 24 23 21 19 17 15 13 13 11 8 5 3 3 4
38 38 37 37 35 34 33 32 30 29 28 27 26 24 23 23 22 21 20 20 20 19 19 20 21 19 18 17 13 9 7 8 8 7 6 7 9 13 15 13 7 2 4 8 8 5 5 6 7 8 9 8 7 6 6 6 4 4 8 16 22 23 22 20 19 17 15 14 14 11 9 6 5 5
34 35 35 35 34 33 33 31 30 29 28 28 28 26 25 25 24 22 21 21 21 21 21 21 20 17 15 13 8 8 9 9 8 7 7 8 11 14 14 11 6 2 1 4 5 6 6 7 8 7 8 9 7 4 4 5 3 1 2 7 15 20 21 21 20 19 18 16 15 14 13 11 9 8
34 32 32 32 31 31 32 30 29 28 27 27 28 27 28 28 26 25 23 22 22 23 22 21 18 14 12 11 9 10 11 10 9 8 8 9 12 13 11 8 4 0 2 1 4 6 7 7 8 8 8 9 8 5 5 5 5 3 2 3 7 13 18 20 20 20 20 19 16 14 15 14 13 12
36 34 32 29 28 29 29 28 28 27 26 26 27 28 29 28 27 26 24 21 21 22 21 18 14 10 9 12 12 11 11 10 8 7 7 8 9 10 8 5 2 2 3 2 1 4 8 9 10 10 9 8 8 7 5 6 6 6 5 5 6 9 13 17 19 20 21 21 19 16 15 16 16 16
38 36 34 29 26 26 27 27 26 26 27 27 27 29 29 27 26 26 25 22 21 21 21 18 14 8 7 11 11 11 10 7 5 7 9 8 8 11 10 7 2 3 4 2 1 2 7 10 11 11 8 6 7 9 7 5 5 5 6 6 6 7 10 13 15 18 20 22 22 19 17 17 18 19
38 37 35 31 27 25 26 27 26 26 28 29 29 30 29 27 27 27 26 24 22 21 22 22 20 15 11 9 9 10 12 11 11 15 15 11 10 13 12 9 5 2 5 2 3 2 6 9 11 12 8 7 9 10 9 7 5 5 6 6 5 4 6 9 12 15 17 20 23 22 20 19 20 21
39 37 35 32 29 27 26 27 26 25 27 30 30 30 29 29 28 26 24 23 21 20 22 23 24 24 21 18 16 16 16 15 16 18 18 15 14 15 13 10 8 3 5 4 4 1 5 6 8 12 11 8 10 11 11 10 9 5 5 6 6 4 4 6 8 11 14 16 19 22 22 22 22 23
38 36 35 33 30 28 26 26 27 25 26 29 30 30 31 29 24 21 20 19 17 18 18 18 19 21 22 21 21 20 20 19 18 20 21 20 18 18 16 13 11 7 7 6 2 3 4 4 5 9 11 11 12 12 13 15 14 8 2 3 4 4 4 5 6 8 11 13 14 17 20 22 24 25
37 36 36 33 31 29 26 26 27 26 27 30 30 29 28 24 18 16 16 15 16 17 17 15 15 15 15 16 17 18 19 20 20 21 22 23 22 21 19 15 14 11 9 7 3 6 5 4 6 7 8 10 12 12 12 16 17 12 5 1 1 1 3 4 5 7 11 13 13 13 15 18 21 24
35 35 35 32 30 29 27 27 28 27 27 30 31 28 24 18 15 15 13 14 17 18 17 16 16 15 14 14 15 16 16 17 17 18 20 22 22 21 18 14 13 9 7 8 5 6 4 4 7 8 9 10 11 11 12 15 17 13 7 3 3 2 1 2 3 5 8 12 15 15 15 15 16 19
32 30 29 29 27 26 24 25 29 29 28 30 31 29 23 18 16 16 14 16 18 18 17 17 17 16 15 14 15 15 16 16 15 15 15 16 17 17 14 12 11 8 6 6 7 7 7 6 6 7 9 11 11 11 11 14 15 14 10 6 3 2 4 3 1 3 4 8 11 14 16 16 14 15
33 30 28 27 26 24 23 24 27 29 29 30 31 30 25 20 19 18 18 19 19 18 18 17 15 15 15 15 15 15 14 14 15 15 14 13 13 12 10 9 9 9 9 8 9 9 9 8 5 5 7 9 10 11 11 12 13 15 15 10 4 1 3 4 4 3 3 3 6 10 13 15 15 14
33 32 29 27 26 25 25 25 26 28 29 29 30 29 27 24 22 22 21 20 19 19 17 15 14 14 14 14 12 9 7 8 12 14 14 13 12 11 10 9 10 10 11 11 10 9 10 9 6 5 6 7 8 9 11 10 10 13 15 13 8 4 3 4 4 5 5 3 3 6 9 11 13 14
30 30 28 26 26 26 25 25 25 27 29 31 31 30 29 27 26 25 22 20 20 20 17 15 15 14 12 10 8 6 5 5 6 9 11 12 13 13 12 12 12 12 12 12 12 11 11 9 7 5 6 7 7 6 8 9 8 9 11 12 11 11 8 4 3 5 6 5 4 4 5 6 8 11
28 28 26 25 25 25 25 25 25 25 27 30 31 31 30 29 29 27 24 22 21 20 17 16 15 13 11 9 8 8 10 9 5 4 7 9 10 10 11 11 12 11 12 12 13 13 12 10 8 6 6 7 7 5 6 7 7 7 8 8 10 12 10 6 4 5 4 4 5 4 1 4 5 6
24 24 24 24 25 25 26 27 25 25 26 28 30 32 31 31 31 29 25 23 21 19 18 18 17 15 13 11 11 11 13 13 10 7 6 6 6 6 8 10 11 10 10 11 13 13 12 11 10 8 7 7 8 7 6 6 6 6 7 6 6 9 11 8 7 6 4 2 3 5 4 0 2 4
18 22 24 25 26 25 27 28 27 26 27 27 28 30 31 30 31 31 28 25 22 20 20 21 20 17 14 13 13 15 15 13 12 12 12 11 10 9 8 8 9 9 8 8 8 8 8 9 9 9 8 9 9 9 8 7 5 5 6 7 4 6 9 7 6 7 7 4 2 2 3 3 2 1
19 23 26 26 26 24 27 30 29 26 27 27 26 28 30 30 30 31 30 28 24 22 22 22 19 18 17 15 15 17 18 16 13 14 15 15 15 16 16 13 10 8 7 5 4 4 5 6 7 8 9 10 10 10 10 9 7 4 5 7 4 3 4 3 4 5 5 4 2 0 1 1 1 2
23 25 26 26 25 23 25 30 30 27 26 25 24 26 29 29 29 30 31 29 26 23 22 21 19 17 17 17 16 17 21 21 17 14 14 13 14 16 18 18 16 13 11 9 6 5 6 7 8 8 9 10 11 11 10 10 9 6 5 6 5 1 0 1 2 3 3 1 0 1 2 1 2 4
29 27 26 25 24 22 22 27 30 27 25 24 22 24 27 28 28 30 32 30 26 24 22 21 19 16 15 15 14 15 20 24 24 20 18 16 15 14 14 15 16 14 14 13 10 8 9 9 10 11 9 8 10 11 10 10 10 9 7 7 6 3 2 2 3 2 3 3 2 1 1 2 1 1
34 31 29 27 25 21 19 23 28 28 24 22 22 23 26 27 27 28 30 28 25 24 22 20 19 17 14 13 13 12 13 18 22 23 23 22 21 20 17 16 15 13 13 12 10 10 11 11 12 12 10 8 10 11 10 10 11 11 9 8 7 6 5 5 6 5 4 4 5 2 1 2 2 4
31 32 31 29 27 25 19 18 24 28 24 21 22 23 24 26 27 27 27 25 24 23 22 20 18 16 13 13 13 11 10 11 13 16 18 20 22 23 23 21 20 18 17 14 13 12 13 14 14 13 11 11 11 9 7 7 8 9 8 8 7 7 7 8 9 8 8 8 7 5 3 2 2 4
20 24 28 28 28 29 24 17 19 26 25 20 21 23 23 24 27 27 26 25 24 23 20 18 16 14 13 13 13 12 11 10 10 11 12 14 17 19 20 21 21 20 19 17 15 13 14 15 14 13 14 14 10 6 5 5 4 4 7 9 9 8 9 11 11 11 10 10 8 5 5 5 3 3
13 14 20 25 27 29 29 21 16 21 25 23 21 22 24 25 27 27 25 25 24 21 18 15 13 12 13 14 14 13 12 11 10 10 11 11 13 14 15 17 18 18 17 15 15 14 14 15 15 15 14 12 8 7 7 8 7 4 7 9 9 9 10 12 13 13 12 10 8 6 6 7 7 6
13 11 13 20 25 26 29 27 19 17 22 25 22 21 24 26 26 26 24 23 21 18 15 13 12 12 13 14 14 14 13 12 12 12 11 11 12 14 14 15 17 18 18 17 17 17 16 14 12 11 10 8 7 10 12 12 9 6 5 6 7 9 12 13 15 15 14 12 10 9 8 8 8 7
13 12 11 16 23 24 27 30 24 18 21 26 26 23 24 24 24 24 22 20 18 16 13 12 11 12 13 14 15 15 14 13 12 12 11 11 11 13 14 15 15 16 18 19 19 17 14 11 9 8 8 8 9 12 14 14 11 7 6 5 6 8 11 13 15 15 14 13 11 10 9 9 9 10
10 12 11 12 19 25 25 23 20 18 21 27 28 26 24 24 23 22 20 18 17 15 13 12 12 13 13 14 15 16 15 13 12 12 12 12 11 11 12 13 14 13 14 16 15 14 12 11 11 11 11 11 11 12 14 14 11 9 9 8 7 8 10 12 14 15 13 11 12 12 11 10 11 11
12 15 13 9 17 26 24 15 12 17 22 27 29 28 25 24 22 19 17 17 16 15 14 13 13 13 13 14 15 15 14 13 13 13 13 12 12 12 11 11 12 12 13 13 13 12 12 13 15 16 15 14 14 13 14 14 12 9 9 10 10 10 10 11 12 15 14 13 15 14 12 10 10 10
12 16 15 10 16 28 26 15 10 15 20 23 24 24 22 20 18 16 16 16 16 15 15 15 14 13 13 13 14 14 13 14 14 15 14 13 13 13 12 12 12 12 13 14 14 15 14 13 16 19 20 19 17 14 13 14 13 11 10 11 12 12 11 9 10 14 17 17 15 13 11 10 10 8
Wind_Direction
262 261 259 257 255 251 246 243 244 244 245 245 246 249 250 253 259 263 267 268 269 273 277 281 282 273 263 262 264 268 272 276 279 283 287 288 292 295 295 295 292 293 297 292 286 279 269 265 262 263 267 265 270 279 282 283 281 292 333 353 353 14 83 150 178 187 188 191 201 212 218 219 218 217
262 259 257 256 255 254 250 246 244 244 244 244 243 246 248 251 253 255 263 268 271 274 277 278 279 276 272 263 260 263 267 272 277 280 283 284 287 290 291 291 290 289 292 291 289 284 275 268 264 261 263 264 266 277 285 284 280 282 306 339 357 29 73 125 161 179 186 190 197 205 213 216 216 218
264 261 258 256 253 252 251 250 247 245 244 244 243 245 247 249 251 252 258 266 270 273 274 275 276 278 278 273 266 265 266 270 274 277 281 283 285 288 287 288 290 287 287 289 288 286 280 272 269 265 262 261 263 270 281 286 282 281 290 315 355 48 75 100 128 154 177 190 194 196 205 214 218 223
265 263 261 259 255 252 250 249 249 248 246 246 245 245 247 248 249 252 255 261 266 268 270 271 275 278 280 279 275 271 269 269 273 276 279 283 285 288 288 289 291 288 285 287 287 285 283 274 270 267 259 255 257 263 272 279 283 284 289 301 334 48 75 91 99 106 133 172 190 191 192 205 216 222
266 265 263 262 259 255 250 248 248 249 248 248 247 246 247 248 249 252 253 256 261 266 267 269 274 277 279 280 279 276 273 271 273 275 277 282 287 290 294 295 294 291 284 282 284 282 282 277 270 266 259 251 251 256 262 269 276 280 288 297 309 27 70 88 95 90 98 128 174 188 188 191 205 216
267 266 264 263 262 258 253 250 248 248 248 248 248 247 247 248 249 250 251 253 258 264 267 269 272 275 276 278 280 279 277 276 277 279 281 284 288 290 294 296 295 292 283 277 280 280 278 276 270 267 262 253 247 247 250 255 263 268 278 294 294 327 67 83 93 91 92 101 124 163 181 183 188 205
268 266 264 263 262 258 254 252 249 247 246 246 246 247 247 248 249 249 250 253 256 261 266 268 270 273 273 274 279 282 284 285 285 286 286 287 288 291 294 295 294 292 283 274 274 275 275 275 272 271 268 259 249 242 240 240 246 253 259 280 292 284 78 84 87 87 92 100 112 134 159 169 174 188
267 266 265 265 263 258 254 252 250 248 246 244 244 245 246 247 249 251 251 253 255 258 263 267 268 270 272 274 280 287 291 294 291 288 288 288 290 292 294 294 295 293 280 270 270 274 279 281 278 276 273 267 256 244 236 232 231 238 243 250 288 305 86 102 90 80 85 97 111 125 133 135 141 157
265 266 266 265 264 259 255 252 250 248 247 245 245 245 246 248 250 251 252 252 253 256 260 264 267 270 272 275 281 288 294 297 294 290 288 289 293 296 293 291 291 286 275 269 273 277 281 282 280 278 273 270 263 250 239 230 226 230 236 233 249 317 331 145 145 65 71 90 106 119 122 119 116 119
264 265 266 265 263 260 257 254 251 249 247 246 246 246 246 247 247 248 249 250 252 255 258 262 266 270 273 276 281 287 293 296 296 294 291 288 292 295 292 288 282 278 278 279 279 277 276 273 270 271 269 267 265 254 242 232 225 226 233 228 212 206 261 319 286 286 292 349 114 121 121 118 114 107
263 264 265 264 264 262 259 257 253 250 248 247 247 246 246 246 245 244 246 247 250 253 255 259 264 269 272 275 280 285 289 291 293 295 295 291 290 289 288 286 282 285 289 280 270 269 273 274 270 271 273 272 272 264 252 240 227 221 227 229 214 198 203 229 228 269 304 287 212 151 135 127 121 112
262 263 264 264 264 263 261 258 254 250 248 248 248 246 244 243 242 242 242 243 246 250 253 257 262 266 269 272 277 282 285 288 289 289 288 288 290 290 287 283 285 294 294 277 265 265 270 274 277 279 282 282 281 276 264 250 234 220 221 229 226 207 198 205 199 180 126 1 316 196 171 161 152 133
261 262 263 263 264 264 262 259 254 249 246 246 246 243 239 237 238 239 240 240 243 246 250 255 260 263 266 269 274 277 281 286 285 279 277 281 288 291 288 286 286 289 285 278 273 271 273 277 280 282 285 287 285 282 275 261 243 226 216 223 233 227 211 202 192 176 154 103 43 233 188 181 183 173
260 261 262 263 264 263 261 258 253 248 245 243 243 241 239 237 237 239 240 240 242 244 248 253 257 260 263 266 269 273 277 281 277 268 270 279 289 294 293 292 283 268 272 279 282 282 284 286 289 297 303 304 298 290 287 275 254 234 218 218 230 238 230 215 196 176 162 148 117 97 211 190 190 190
259 260 260 262 262 260 258 255 250 246 244 243 242 241 239 237 236 237 239 241 243 244 247 251 254 256 260 263 264 269 275 275 268 259 265 283 298 303 304 303 275 244 268 285 296 333 316 297 302 319 322 318 315 307 301 294 272 246 226 217 225 238 240 230 210 188 169 164 152 137 153 213 199 193
258 259 259 260 260 258 256 252 246 242 242 241 241 240 237 234 233 235 239 241 243 244 247 249 251 253 257 262 264 268 270 261 249 245 258 286 299 299 303 309 301 261 276 292 308 355 353 312 317 335 334 323 316 314 311 304 289 264 238 223 222 233 242 240 227 207 183 172 169 163 164 191 222 215
257 257 258 258 258 256 253 249 243 239 239 238 237 236 233 230 230 235 241 244 245 245 246 248 250 250 255 261 263 256 243 229 224 233 254 277 288 290 297 309 318 310 287 295 314 4 13 344 344 350 342 324 310 313 320 308 289 281 260 236 225 228 236 242 239 226 205 186 180 179 184 196 215 227
257 256 256 257 257 255 250 245 239 236 235 234 232 229 226 226 228 232 237 242 246 246 244 243 245 248 252 256 241 210 210 215 219 240 263 279 290 295 299 310 325 338 272 300 335 24 26 357 355 359 347 333 321 312 316 313 291 253 288 256 236 230 232 236 240 239 227 209 195 189 191 201 218 230
258 257 255 256 257 253 248 241 236 234 232 230 228 224 222 225 230 235 237 238 240 243 243 241 240 242 246 242 220 207 219 230 234 247 266 278 289 298 303 313 330 103 154 326 358 27 37 11 354 355 346 335 333 317 290 292 289 254 218 230 237 235 233 232 235 237 235 229 220 210 201 202 213 227
256 257 256 256 256 251 243 236 232 231 231 229 225 222 223 226 233 240 244 242 238 241 247 249 246 240 233 232 225 218 225 235 237 253 275 287 304 317 321 333 1 148 137 112 354 20 37 22 359 357 352 341 347 348 316 288 285 278 249 226 228 232 231 231 232 232 232 232 231 230 224 216 215 222
253 256 257 257 258 252 239 230 225 225 228 230 225 220 223 228 235 243 247 245 239 238 244 252 257 250 218 214 217 216 221 236 258 277 288 301 314 315 319 338 8 163 153 124 243 353 29 23 3 358 4 13 14 10 356 318 288 274 251 230 227 234 232 231 232 232 230 228 227 229 232 231 228 228
250 254 256 256 257 253 239 227 222 220 223 227 225 219 220 227 236 243 245 243 238 233 233 238 244 247 239 227 228 232 235 245 261 271 280 294 300 296 301 322 335 188 170 184 238 314 15 19 8 3 17 57 43 22 8 352 320 280 252 226 210 225 234 227 228 231 231 228 225 223 224 229 233 234
247 250 253 253 255 254 242 228 221 218 218 223 224 218 220 229 238 241 240 238 234 227 224 226 228 232 237 241 246 251 250 248 252 260 269 276 282 287 293 305 308 258 176 187 220 289 10 13 17 14 15 30 32 25 23 15 357 322 271 237 212 211 222 215 215 223 227 228 227 223 220 222 226 230
245 247 249 250 250 252 245 230 222 215 214 221 224 220 222 232 237 236 235 232 225 220 220 220 219 221 226 230 235 242 247 248 248 250 257 263 269 278 283 285 284 258 191 173 228 312 346 355 15 18 9 2 1 9 26 27 18 9 327 231 213 214 223 216 210 213 215 216 220 222 220 219 221 223
243 245 247 247 246 248 243 231 222 215 210 217 226 226 224 226 229 233 236 227 216 213 214 214 215 217 218 221 226 231 237 241 242 241 245 251 255 262 266 265 266 252 196 171 254 298 311 342 358 3 6 4 356 358 18 29 28 31 40 62 122 172 208 219 218 216 212 208 207 211 214 216 218 220
240 242 245 245 244 245 239 227 221 216 210 213 223 228 223 218 226 236 231 214 208 209 209 210 213 216 217 220 225 229 229 232 235 236 238 242 246 251 256 257 260 249 186 171 226 274 285 321 344 349 354 358 359 2 14 22 30 43 53 35 30 49 15 272 235 214 209 209 207 207 208 209 214 218
234 236 239 242 240 236 232 223 219 218 213 211 218 226 224 219 228 232 216 201 202 203 203 208 212 213 216 221 227 233 234 232 233 234 236 241 246 250 253 256 255 241 196 192 230 254 268 290 321 337 338 341 350 5 15 17 27 39 43 39 46 33 5 347 272 185 187 203 207 209 211 210 209 213
232 231 232 234 231 226 224 222 219 218 217 212 212 219 224 223 225 222 205 194 197 199 201 208 212 213 216 222 228 236 244 242 237 237 238 240 243 247 249 250 250 241 228 227 235 244 255 268 287 308 316 325 339 353 3 11 24 33 35 44 68 61 12 30 54 89 121 174 192 199 207 208 204 205
235 234 231 228 227 226 226 226 222 219 219 215 211 215 220 221 218 212 202 194 197 202 203 206 213 216 218 221 225 232 246 247 236 231 232 233 234 235 234 234 237 235 230 227 228 232 241 250 264 282 293 305 323 343 350 356 15 29 31 35 38 34 48 61 58 64 77 97 148 172 189 198 198 199
236 236 232 226 224 225 226 225 223 219 218 217 214 215 218 219 214 207 202 198 198 201 205 211 219 221 220 223 229 234 245 251 237 226 226 227 228 230 231 234 235 230 225 223 224 229 237 247 263 278 285 292 307 333 341 338 354 20 29 32 35 36 39 44 49 58 69 81 99 130 160 177 184 188
233 232 230 226 223 221 219 219 220 220 219 218 217 217 218 220 218 212 204 201 203 207 216 224 226 223 221 225 231 239 245 246 243 238 235 232 230 231 234 240 241 234 226 222 223 230 239 246 258 270 276 283 292 308 324 323 334 3 20 28 34 35 33 37 54 54 56 76 73 68 148 198 200 192
227 225 223 221 219 218 216 215 216 218 220 221 221 219 218 219 221 218 209 205 210 219 224 224 222 220 223 229 230 234 242 243 238 239 248 250 249 242 238 243 246 242 229 219 218 227 237 244 252 260 265 271 278 284 291 299 313 334 344 352 22 42 45 47 51 45 40 61 50 27 21 349 237 227
213 215 213 214 216 216 216 216 217 218 221 221 221 221 220 219 220 220 215 209 210 215 217 216 218 223 233 242 235 225 227 233 232 234 241 248 250 248 246 252 257 251 239 224 214 219 233 244 249 251 252 257 264 271 275 278 288 303 309 315 357 59 60 49 42 41 45 58 52 5 18 31 18 280
198 202 205 211 216 216 215 217 218 219 220 220 219 220 222 222 222 219 214 209 207 208 211 215 221 231 241 249 243 228 220 218 218 224 233 241 245 246 248 256 266 268 262 250 236 241 261 270 265 254 246 245 248 255 263 271 276 278 288 301 321 65 73 44 26 28 35 50 66 83 192 222 297 283
198 196 198 207 216 217 216 217 216 216 217 217 218 220 221 223 223 217 209 206 207 209 212 218 226 237 246 251 249 237 224 216 213 212 217 225 233 238 242 249 258 267 270 267 267 271 272 276 284 278 258 245 245 246 248 259 269 268 268 285 297 294 186 329 353 5 3 352 349 158 170 195 248 254
207 203 200 202 207 213 219 218 215 214 216 216 217 220 220 219 218 212 206 205 208 212 216 221 230 244 256 257 251 237 223 218 218 217 216 221 229 235 238 240 245 254 261 264 267 263 253 260 280 288 279 265 262 255 242 243 255 257 253 260 269 265 245 251 273 307 339 331 301 206 115 55 61 175
211 213 212 208 203 204 215 220 215 213 215 215 215 217 218 215 210 206 203 204 208 215 220 226 238 253 260 252 240 228 217 215 218 220 221 224 231 238 242 240 239 241 245 250 253 251 252 261 273 277 275 276 279 274 257 241 242 248 250 248 248 249 246 245 252 256 263 286 291 285 348 30 97 126
213 216 218 217 211 205 207 219 219 213 212 215 214 212 214 212 205 200 202 206 211 218 224 234 246 251 248 238 230 222 215 214 217 220 223 226 229 234 238 240 241 240 238 240 244 250 257 262 265 266 265 266 273 286 286 261 248 247 249 246 242 239 236 238 244 242 238 252 268 268 257 255 128 120
220 221 220 219 218 211 204 209 219 214 210 213 213 210 210 209 204 202 206 211 215 222 231 240 244 240 232 229 225 219 218 222 224 227 231 231 230 230 232 235 238 239 239 240 241 246 251 252 253 256 258 257 265 297 328 312 288 245 227 229 228 224 227 234 239 236 235 246 259 258 245 242 213 165
230 233 223 216 215 213 205 202 210 212 210 211 210 207 207 206 204 205 209 213 218 226 234 237 235 231 227 223 220 220 223 227 232 237 240 238 232 227 225 227 229 230 232 234 234 236 241 245 247 252 257 262 277 300 299 293 295 265 219 214 213 211 215 226 233 234 236 244 255 260 256 246 227 205
235 248 236 214 209 209 207 206 209 212 211 210 206 202 203 205 204 204 209 216 223 230 233 231 231 232 227 222 222 227 230 231 233 237 240 241 236 229 225 225 224 221 223 228 232 234 240 246 248 251 258 265 272 273 268 266 275 276 237 208 203 207 211 216 224 228 230 234 244 256 258 250 238 228
240 249 248 218 204 200 204 211 218 221 215 211 208 204 204 206 206 207 213 220 226 227 226 229 233 234 229 227 229 233 235 235 234 232 235 239 236 228 225 226 227 224 224 226 227 229 236 246 241 233 236 241 243 250 252 251 257 264 247 221 213 217 218 217 219 223 226 228 236 251 256 250 242 235
244 243 250 228 203 194 195 207 221 227 219 212 209 208 206 206 206 210 216 220 222 223 226 231 232 232 232 232 232 234 236 234 229 227 231 234 230 227 225 224 226 227 225 222 221 222 230 238 237 233 235 235 234 239 242 241 245 250 242 232 223 220 223 222 215 214 218 222 227 236 244 247 244 241
241 235 241 232 199 192 189 191 210 217 210 204 203 204 204 205 208 213 218 222 225 228 230 231 231 234 236 234 232 233 233 230 225 225 227 225 223 224 223 222 224 228 224 221 227 232 231 229 231 235 237 235 235 239 239 238 242 244 238 231 221 216 225 232 218 205 203 212 223 230 233 237 242 245
227 224 228 222 198 195 194 191 194 198 193 190 191 194 196 202 208 215 222 227 230 230 226 224 228 236 238 235 232 232 229 224 222 223 225 225 225 225 223 221 225 229 227 226 231 234 232 230 233 235 234 233 234 238 241 241 240 236 233 232 223 215 222 235 221 203 200 209 224 231 225 223 233 241
Height
1414 1414 1415 1415 1415 1416 1417 1418 1418 1419 1419 1419 1419 1419 1419 1418 1417 1416 1414 1413 1414 1415 1416 1416 1416 1416 1415 1414 1413 1412 1412 1411 1411 1409 1408 1408 1407 1406 1406 1405 1405 1405 1403 1401 1399 1397 1397 1397 1398 1399 1400 1401 1401 1402 1400 1398 1395 1391 1388 1387 1386 1382 1376 1374 1378 1380 1380 1383 1389 1395 1399 1401 1401 1401
1410 1410 1411 1411 1411 1412 1413 1413 1414 1415 1415 1416 1416 1416 1416 1416 1415 1414 1412 1409 1410 1412 1412 1412 1413 1413 1412 1412 1411 1410 1410 1409 1409 1407 1406 1405 1405 1404 1403 1402 1402 1402 1400 1398 1397 1395 1394 1394 1394 1395 1395 1396 1396 1396 1394 1393 1393 1391 1391 1390 1389 1383 1374 1370 1373 1377 1378 1381 1388 1394 1396 1397 1397 1397
1406 1406 1406 1407 1407 1408 1408 1409 1410 1411 1411 1412 1412 1413 1413 1413 1412 1412 1411 1407 1406 1408 1409 1409 1410 1409 1409 1409 1408 1408 1407 1407 1406 1405 1404 1402 1402 1401 1400 1399 1399 1398 1397 1396 1395 1394 1392 1392 1391 1390 1390 1390 1391 1391 1391 1390 1390 1391 1392 1391 1388 1381 1372 1367 1369 1373 1377 1381 1387 1392 1393 1393 1393 1394
1402 1401 1401 1402 1403 1404 1404 1405 1405 1406 1407 1408 1409 1409 1410 1410 1410 1410 1409 1405 1403 1405 1406 1406 1407 1407 1406 1405 1405 1404 1404 1404 1404 1402 1401 1399 1398 1398 1397 1396 1396 1395 1394 1394 1393 1392 1391 1390 1389 1388 1387 1387 1388 1389 1389 1388 1389 1391 1391 1390 1385 1378 1371 1367 1368 1372 1376 1380 1384 1389 1390 1390 1390 1391
1397 1397 1397 1397 1398 1400 1400 1400 1401 1402 1403 1404 1404 1405 1406 1406 1407 1407 1406 1403 1401 1402 1403 1404 1404 1404 1403 1402 1401 1401 1400 1400 1400 1399 1398 1397 1396 1395 1394 1393 1393 1392 1392 1391 1391 1391 1391 1390 1389 1388 1387 1387 1388 1388 1388 1388 1389 1391 1392 1390 1384 1377 1371 1368 1369 1373 1376 1379 1382 1384 1386 1388 1389 1390
1393 1392 1392 1392 1393 1395 1395 1396 1397 1398 1399 1400 1400 1401 1402 1402 1403 1403 1403 1402 1400 1399 1399 1401 1401 1401 1400 1399 1398 1398 1397 1397 1397 1396 1395 1394 1394 1393 1392 1391 1390 1390 1389 1389 1389 1390 1389 1389 1388 1388 1388 1388 1388 1388 1388 1388 1389 1390 1391 1390 1384 1377 1372 1370 1371 1373 1376 1378 1379 1380 1383 1386 1388 1389
1388 1388 1388 1388 1389 1390 1391 1391 1393 1394 1395 1395 1396 1396 1398 1398 1399 1400 1400 1400 1398 1396 1396 1398 1398 1398 1397 1396 1396 1396 1395 1395 1394 1393 1393 1392 1391 1391 1389 1388 1387 1388 1388 1388 1388 1388 1388 1388 1388 1387 1387 1387 1387 1387 1388 1388 1388 1389 1390 1389 1384 1378 1372 1370 1371 1373 1374 1375 1376 1379 1382 1385 1387 1389
1383 1383 1383 1384 1385 1386 1386 1387 1388 1389 1390 1391 1392 1393 1394 1395 1395 1396 1397 1396 1396 1395 1394 1394 1395 1395 1395 1394 1393 1393 1393 1393 1392 1391 1390 1390 1389 1388 1387 1386 1385 1386 1386 1386 1386 1386 1386 1386 1386 1386 1386 1386 1386 1386 1387 1388 1388 1389 1389 1387 1382 1376 1371 1370 1371 1374 1375 1375 1376 1378 1381 1384 1387 1389
1378 1379 1379 1379 1381 1382 1382 1383 1384 1385 1386 1387 1388 1389 1390 1391 1392 1393 1393 1393 1393 1392 1391 1391 1392 1393 1392 1391 1391 1391 1391 1390 1390 1389 1389 1388 1387 1386 1385 1384 1384 1383 1384 1384 1385 1385 1385 1384 1384 1384 1384 1384 1384 1384 1385 1386 1386 1387 1386 1382 1378 1374 1372 1372 1374 1376 1378 1377 1376 1377 1379 1383 1387 1389
1373 1374 1374 1375 1376 1377 1377 1378 1379 1381 1382 1383 1384 1385 1386 1388 1389 1389 1390 1390 1390 1389 1389 1389 1389 1390 1389 1389 1389 1389 1389 1388 1387 1387 1386 1386 1385 1384 1383 1382 1382 1381 1382 1383 1383 1382 1382 1382 1382 1382 1382 1381 1381 1380 1381 1382 1382 1382 1381 1378 1376 1375 1376 1377 1378 1379 1380 1379 1378 1377 1379 1382 1387 1390
1369 1369 1370 1371 1372 1372 1373 1374 1375 1376 1378 1379 1380 1381 1382 1384 1385 1386 1387 1387 1387 1386 1386 1386 1387 1387 1387 1387 1387 1387 1387 1387 1386 1385 1384 1383 1383 1383 1382 1381 1380 1380 1380 1380 1379 1379 1378 1378 1378 1378 1378 1377 1377 1376 1376 1377 1378 1378 1377 1377 1376 1377 1378 1380 1381 1381 1380 1380 1379 1379 1379 1382 1387 1390
1364 1365 1365 1366 1367 1368 1368 1370 1371 1372 1373 1374 1375 1377 1378 1380 1381 1382 1383 1384 1384 1384 1383 1383 1384 1384 1384 1384 1385 1385 1385 1385 1385 1385 1383 1382 1381 1381 1381 1380 1379 1379 1378 1376 1376 1375 1375 1375 1375 1375 1374 1374 1373 1373 1373 1375 1376 1376 1376 1376 1376 1377 1379 1381 1383 1382 1380 1379 1379 1380 1381 1384 1388 1391
1360 1360 1361 1362 1363 1364 1365 1366 1367 1368 1370 1371 1371 1373 1375 1376 1377 1378 1379 1380 1381 1381 1381 1381 1381 1382 1381 1382 1383 1383 1383 1383 1383 1383 1382 1381 1380 1380 1379 1378 1378 1377 1376 1374 1373 1373 1372 1372 1373 1373 1372 1372 1372 1372 1372 1373 1374 1374 1375 1375 1376 1377 1380 1383 1384 1383 1380 1379 1380 1380 1382 1385 1389 1392
1355 1356 1357 1358 1359 1360 1361 1362 1363 1365 1366 1367 1368 1370 1372 1373 1374 1375 1376 1376 1377 1378 1378 1378 1379 1379 1379 1379 1381 1381 1381 1382 1381 1381 1381 1380 1379 1378 1377 1377 1377 1376 1374 1373 1372 1372 1372 1371 1371 1372 1372 1372 1371 1371 1372 1372 1372 1372 1373 1375 1377 1378 1381 1383 1384 1383 1380 1379 1380 1381 1383 1386 1389 1392
1351 1352 1353 1354 1355 1356 1357 1358 1359 1361 1363 1364 1366 1367 1368 1370 1371 1372 1373 1373 1374 1375 1375 1376 1377 1376 1376 1377 1379 1379 1379 1380 1379 1380 1380 1379 1378 1377 1376 1375 1375 1374 1373 1372 1372 1372 1372 1371 1370 1371 1371 1371 1371 1371 1371 1371 1371 1371 1372 1375 1378 1380 1381 1382 1383 1382 1381 1380 1381 1382 1384 1387 1390 1392
1346 1347 1348 1349 1351 1351 1353 1354 1356 1357 1359 1361 1363 1364 1366 1367 1368 1369 1370 1371 1372 1373 1373 1373 1374 1374 1374 1375 1376 1377 1377 1377 1378 1378 1378 1378 1378 1377 1375 1374 1374 1374 1373 1372 1372 1372 1371 1371 1370 1371 1371 1371 1371 1371 1371 1371 1371 1371 1372 1375 1378 1379 1380 1380 1380 1380 1380 1381 1381 1382 1385 1388 1391 1392
1342 1343 1344 1345 1346 1347 1349 1351 1352 1354 1356 1358 1360 1362 1363 1364 1365 1366 1367 1368 1369 1370 1371 1371 1371 1372 1373 1373 1374 1375 1375 1375 1376 1376 1377 1377 1377 1376 1374 1373 1373 1373 1373 1372 1372 1371 1371 1370 1371 1371 1370 1370 1370 1371 1372 1372 1372 1372 1373 1374 1376 1378 1378 1378 1378 1378 1379 1380 1381 1383 1385 1389 1391 1393
1337 1339 1340 1341 1342 1343 1345 1347 1349 1350 1352 1355 1357 1359 1360 1361 1362 1363 1365 1366 1367 1367 1368 1368 1369 1370 1371 1372 1372 1373 1374 1374 1374 1375 1375 1376 1376 1375 1374 1373 1372 1372 1372 1372 1372 1371 1370 1370 1371 1371 1371 1370 1370 1371 1372 1372 1372 1373 1373 1373 1374 1375 1376 1376 1376 1377 1378 1379 1381 1383 1386 1389 1392 1394
1333 1335 1336 1337 1338 1339 1340 1343 1345 1347 1349 1351 1353 1355 1357 1358 1359 1360 1361 1363 1364 1364 1365 1366 1367 1369 1369 1370 1371 1372 1372 1372 1373 1373 1374 1374 1374 1374 1373 1372 1372 1372 1372 1372 1372 1371 1371 1371 1371 1371 1371 1370 1370 1371 1372 1372 1372 1372 1372 1372 1373 1373 1374 1374 1374 1375 1377 1378 1380 1383 1386 1389 1392 1395
1329 1331 1332 1333 1334 1335 1337 1339 1342 1344 1347 1349 1350 1352 1354 1356 1357 1357 1358 1360 1362 1363 1363 1364 1365 1367 1368 1368 1369 1370 1371 1371 1372 1372 1372 1373 1373 1373 1372 1372 1372 1372 1372 1372 1372 1372 1371 1371 1371 1371 1371 1370 1371 1371 1371 1371 1371 1370 1370 1370 1371 1372 1372 1373 1373 1374 1376 1378 1380 1382 1385 1388 1392 1395
1325 1327 1328 1330 1331 1332 1333 1336 1339 1342 1344 1346 1347 1350 1352 1353 1355 1355 1356 1358 1360 1361 1363 1363 1364 1365 1366 1367 1368 1369 1370 1370 1371 1371 1372 1372 1372 1372 1372 1371 1372 1372 1373 1372 1372 1372 1372 1372 1371 1371 1370 1370 1370 1370 1370 1370 1369 1369 1369 1369 1370 1371 1372 1372 1373 1373 1375 1377 1379 1381 1384 1387 1390 1394
1321 1323 1324 1327 1328 1329 1330 1333 1335 1338 1341 1343 1344 1347 1349 1351 1352 1352 1353 1355 1357 1359 1361 1363 1364 1365 1365 1366 1367 1368 1369 1370 1370 1370 1370 1371 1372 1372 1371 1371 1371 1372 1372 1372 1372 1372 1372 1372 1372 1370 1369 1368 1369 1370 1370 1369 1368 1367 1367 1368 1369 1370 1371 1372 1373 1373 1374 1375 1377 1380 1383 1386 1390 1393
1317 1319 1321 1323 1325 1326 1328 1330 1332 1335 1338 1340 1341 1345 1347 1348 1348 1349 1351 1352 1354 1356 1358 1359 1361 1363 1364 1365 1366 1367 1367 1369 1369 1369 1369 1370 1371 1370 1371 1371 1371 1371 1372 1372 1372 1372 1373 1373 1372 1371 1369 1368 1369 1369 1369 1369 1368 1367 1367 1367 1368 1369 1370 1371 1372 1373 1374 1375 1377 1380 1383 1386 1390 1392
1313 1315 1317 1319 1321 1323 1325 1327 1329 1332 1335 1337 1339 1342 1344 1345 1345 1347 1349 1350 1352 1354 1355 1357 1358 1360 1362 1363 1364 1365 1365 1366 1367 1368 1368 1368 1369 1369 1370 1371 1371 1370 1371 1371 1372 1372 1372 1372 1372 1372 1372 1371 1370 1370 1370 1369 1367 1366 1366 1367 1368 1369 1369 1371 1372 1373 1374 1376 1378 1381 1384 1387 1390 1393
1309 1311 1313 1316 1318 1319 1322 1324 1326 1329 1333 1335 1337 1339 1341 1342 1344 1347 1348 1349 1351 1352 1354 1355 1357 1358 1359 1360 1361 1362 1363 1364 1365 1366 1366 1366 1367 1368 1368 1369 1369 1369 1370 1371 1372 1372 1372 1372 1372 1373 1373 1373 1372 1371 1371 1370 1368 1367 1367 1367 1368 1369 1369 1370 1371 1373 1374 1376 1379 1382 1385 1388 1391 1393
1305 1307 1310 1312 1314 1316 1318 1321 1323 1326 1330 1333 1335 1336 1338 1341 1344 1345 1346 1347 1349 1350 1352 1354 1355 1356 1357 1359 1359 1360 1361 1362 1362 1363 1364 1365 1365 1366 1366 1367 1368 1369 1370 1371 1372 1372 1372 1372 1372 1372 1373 1373 1373 1373 1372 1371 1370 1368 1368 1368 1369 1369 1370 1370 1371 1373 1375 1377 1379 1382 1384 1387 1390 1392
1302 1304 1307 1309 1311 1313 1315 1318 1321 1323 1327 1330 1332 1334 1337 1340 1342 1344 1345 1346 1347 1348 1350 1352 1353 1354 1356 1357 1358 1359 1359 1360 1361 1362 1363 1363 1364 1364 1365 1366 1366 1368 1369 1371 1371 1372 1372 1372 1372 1373 1373 1373 1373 1373 1373 1372 1371 1370 1369 1369 1370 1370 1371 1371 1372 1373 1375 1377 1380 1382 1384 1386 1388 1390
1299 1302 1304 1306 1308 1311 1313 1315 1318 1321 1324 1327 1330 1332 1335 1338 1340 1342 1343 1344 1345 1347 1348 1350 1351 1352 1354 1355 1356 1357 1358 1359 1360 1360 1361 1362 1363 1363 1364 1364 1365 1366 1367 1369 1370 1371 1372 1372 1373 1373 1373 1372 1372 1372 1372 1372 1372 1371 1369 1369 1370 1371 1372 1372 1373 1374 1376 1378 1380 1382 1384 1386 1387 1388
1296 1299 1302 1304 1306 1308 1311 1313 1316 1318 1321 1324 1327 1330 1333 1336 1338 1339 1340 1342 1344 1345 1346 1348 1349 1351 1352 1354 1355 1356 1357 1358 1358 1359 1360 1361 1361 1362 1363 1363 1364 1365 1366 1367 1368 1369 1370 1370 1372 1372 1372 1372 1372 1372 1371 1371 1371 1370 1369 1369 1370 1371 1372 1373 1374 1375 1376 1378 1379 1381 1383 1385 1387 1388
1293 1296 1299 1301 1303 1305 1308 1310 1312 1315 1318 1321 1324 1327 1330 1333 1335 1336 1338 1340 1341 1343 1345 1346 1348 1349 1351 1352 1353 1355 1356 1356 1357 1357 1358 1359 1360 1361 1362 1362 1362 1363 1365 1366 1367 1367 1368 1369 1370 1371 1371 1371 1371 1371 1371 1371 1370 1370 1369 1369 1369 1369 1370 1371 1372 1374 1375 1376 1378 1379 1381 1383 1384 1385
1289 1292 1296 1298 1300 1303 1305 1307 1310 1312 1315 1317 1320 1323 1327 1329 1331 1334 1336 1338 1339 1341 1343 1345 1346 1348 1349 1351 1352 1353 1354 1354 1355 1356 1357 1357 1358 1359 1360 1360 1361 1362 1363 1364 1365 1366 1367 1368 1369 1369 1369 1369 1369 1370 1370 1370 1369 1369 1369 1369 1369 1369 1369 1370 1371 1372 1373 1374 1375 1376 1377 1378 1379 1380
1286 1289 1293 1296 1298 1300 1302 1304 1306 1309 1312 1314 1317 1320 1323 1326 1328 1331 1334 1336 1337 1339 1341 1343 1345 1346 1348 1349 1350 1351 1352 1353 1354 1355 1356 1356 1357 1358 1359 1359 1359 1360 1362 1363 1364 1365 1366 1367 1367 1368 1368 1368 1368 1368 1369 1369 1369 1368 1368 1368 1369 1369 1369 1369 1370 1370 1371 1372 1373 1373 1374 1375 1376 1377
1284 1287 1290 1292 1294 1297 1299 1301 1303 1306 1308 1311 1314 1317 1319 1322 1325 1328 1331 1333 1335 1337 1339 1341 1343 1345 1346 1347 1348 1349 1350 1351 1352 1353 1354 1355 1356 1357 1357 1358 1358 1359 1360 1361 1362 1364 1365 1365 1366 1367 1367 1368 1368 1368 1368 1368 1368 1368 1368 1368 1368 1369 1369 1370 1370 1370 1371 1372 1373 1374 1375 1375 1376 1377
1282 1284 1287 1289 1291 1294 1296 1298 1300 1303 1306 1308 1311 1314 1316 1319 1322 1325 1328 1330 1333 1335 1337 1339 1341 1343 1344 1345 1346 1348 1349 1349 1350 1351 1352 1353 1354 1355 1356 1356 1357 1358 1359 1360 1361 1362 1363 1364 1365 1365 1366 1366 1367 1367 1367 1367 1368 1368 1368 1367 1368 1369 1370 1370 1371 1371 1372 1373 1374 1375 1376 1377 1378 1379
1280 1283 1285 1287 1290 1292 1294 1296 1298 1301 1303 1306 1309 1311 1314 1317 1319 1322 1325 1328 1331 1333 1335 1337 1339 1341 1342 1343 1344 1345 1346 1347 1349 1350 1350 1352 1353 1354 1354 1355 1356 1356 1357 1358 1360 1361 1362 1363 1363 1364 1364 1365 1365 1366 1366 1367 1367 1368 1368 1368 1368 1369 1370 1370 1371 1372 1373 1374 1375 1377 1378 1380 1381 1381
1278 1281 1284 1286 1288 1290 1292 1294 1297 1299 1302 1304 1307 1309 1312 1314 1317 1320 1323 1326 1329 1331 1333 1335 1337 1338 1340 1341 1342 1342 1343 1344 1346 1347 1349 1350 1351 1352 1353 1354 1354 1355 1356 1357 1358 1359 1361 1361 1362 1362 1363 1363 1363 1364 1365 1366 1367 1367 1368 1369 1369 1370 1370 1371 1371 1372 1374 1375 1376 1378 1380 1381 1382 1383
1276 1280 1282 1285 1287 1289 1291 1293 1295 1298 1300 1303 1305 1307 1310 1312 1315 1318 1321 1324 1327 1329 1331 1333 1335 1336 1337 1338 1339 1340 1341 1342 1343 1345 1346 1348 1349 1350 1351 1352 1353 1354 1355 1355 1357 1358 1359 1360 1361 1361 1362 1362 1362 1362 1363 1365 1366 1367 1368 1369 1370 1371 1372 1372 1373 1373 1375 1376 1377 1379 1381 1382 1383 1384
1275 1278 1280 1283 1285 1288 1290 1292 1294 1296 1299 1302 1304 1306 1308 1311 1314 1317 1320 1323 1325 1327 1330 1331 1333 1334 1335 1336 1337 1338 1339 1340 1341 1342 1344 1345 1346 1347 1348 1349 1351 1352 1353 1354 1355 1356 1357 1358 1359 1360 1361 1362 1362 1362 1362 1363 1364 1366 1367 1368 1370 1371 1372 1373 1374 1375 1376 1377 1378 1380 1382 1383 1384 1386
1275 1277 1279 1281 1284 1286 1289 1291 1293 1295 1298 1300 1302 1304 1307 1310 1313 1316 1318 1321 1323 1326 1328 1329 1331 1332 1333 1334 1335 1337 1337 1338 1339 1340 1342 1343 1344 1345 1346 1347 1348 1350 1351 1352 1353 1355 1356 1357 1358 1359 1360 1360 1361 1361 1362 1362 1363 1364 1365 1366 1368 1370 1371 1372 1374 1375 1377 1378 1379 1381 1383 1384 1385 1386
1275 1276 1277 1279 1282 1284 1288 1290 1292 1294 1297 1299 1301 1303 1306 1308 1311 1314 1316 1319 1322 1324 1326 1327 1328 1330 1331 1332 1334 1335 1336 1336 1338 1339 1340 1341 1342 1343 1344 1345 1346 1347 1349 1350 1352 1353 1354 1355 1356 1357 1358 1359 1360 1361 1362 1362 1362 1363 1364 1365 1367 1369 1370 1371 1372 1374 1376 1377 1379 1381 1382 1383 1385 1386
1274 1275 1276 1277 1280 1283 1286 1288 1290 1292 1295 1297 1300 1302 1305 1307 1310 1313 1316 1318 1320 1322 1324 1325 1326 1328 1329 1330 1332 1333 1333 1335 1336 1337 1338 1339 1340 1341 1342 1343 1344 1345 1346 1348 1349 1351 1352 1354 1355 1356 1357 1358 1359 1360 1361 1362 1362 1363 1364 1365 1366 1368 1369 1370 1371 1373 1375 1377 1378 1380 1381 1382 1383 1385
1273 1274 1275 1276 1278 1281 1284 1287 1288 1291 1293 1296 1298 1301 1304 1307 1309 1312 1315 1317 1319 1321 1322 1323 1325 1326 1327 1328 1330 1330 1331 1333 1334 1335 1336 1337 1337 1338 1340 1341 1342 1343 1344 1346 1347 1349 1351 1352 1354 1355 1356 1357 1358 1359 1360 1361 1362 1363 1363 1365 1366 1367 1368 1369 1371 1372 1374 1376 1377 1379 1380 1381 1382 1383
1272 1273 1274 1276 1277 1280 1284 1286 1288 1290 1291 1294 1297 1300 1303 1305 1308 1310 1313 1315 1317 1319 1320 1322 1323 1324 1325 1326 1327 1328 1329 1331 1332 1333 1334 1335 1335 1336 1338 1339 1340 1341 1343 1344 1346 1348 1350 1351 1352 1353 1354 1355 1356 1358 1359 1360 1361 1362 1363 1364 1366 1367 1368 1369 1370 1372 1374 1376 1377 1378 1379 1380 1381 1382
1271 1272 1274 1276 1277 1280 1283 1285 1287 1289 1290 1292 1295 1299 1302 1304 1307 1309 1311 1314 1316 1317 1319 1320 1321 1322 1323 1324 1325 1326 1327 1329 1330 1331 1332 1333 1334 1335 1336 1337 1338 1340 1341 1343 1344 1346 1347 1349 1350 1351 1352 1353 1354 1356 1357 1358 1360 1361 1362 1363 1365 1366 1367 1368 1370 1372 1374 1375 1376 1377 1378 1379 1380 1382
1271 1272 1274 1275 1277 1279 1282 1284 1287 1289 1291 1293 1295 1298 1301 1303 1306 1308 1310 1312 1314 1315 1317 1318 1319 1320 1321 1322 1323 1324 1326 1327 1328 1329 1330 1331 1332 1333 1335 1336 1337 1338 1340 1341 1343 1344 1345 1347 1347 1348 1350 1351 1353 1354 1355 1356 1358 1360 1361 1362 1364 1366 1367 1368 1369 1371 1373 1374 1376 1377 1378 1379 1380 1381